Location: Oshawa
(43.9000°N, 78.8670°W)
Time: 22:38:55
(UTC-04:00)

CZ-4C R/B - Visible Passes

Search period start: 23 July 2017 00:00
Search period end: 02 August 2017 00:00
Orbit: 415 x 507 km, 97.5° (Epoch: 22 July)

Date Brightness Start Highest point End Pass type
(mag) Time Alt. Az. Time Alt. Az. Time Alt. Az.
23 Jul 4.9 00:56:44 24° NNE 00:56:44 24° NNE 00:58:34 10° N visible
24 Jul 5.6 00:25:00 13° NE 00:25:00 13° NE 00:26:05 10° NNE visible
24 Jul 5.2 01:58:53 19° NW 01:58:53 19° NW 02:00:05 10° NNW visible
25 Jul 4.9 01:27:08 28° N 01:27:08 28° N 01:28:51 10° N visible
26 Jul 5.1 00:55:23 23° NNE 00:55:23 23° NNE 00:57:07 10° N visible
27 Jul 5.7 00:23:38 13° NE 00:23:38 13° NE 00:24:35 10° NE visible
27 Jul 5.3 01:57:31 19° NW 01:57:31 19° NW 01:58:41 10° NNW visible
28 Jul 5.0 01:25:46 26° N 01:25:46 26° N 01:27:25 10° N visible
29 Jul 5.2 00:54:01 21° NNE 00:54:01 21° NNE 00:55:39 10° N visible
30 Jul 5.7 00:22:16 12° NE 00:22:16 12° NE 00:23:03 10° NE visible
30 Jul 5.4 01:56:09 18° NW 01:56:09 18° NW 01:57:16 10° NNW visible
31 Jul 5.2 01:24:24 25° N 01:24:24 25° N 01:25:59 10° N visible
01 Aug 5.4 00:52:39 20° NNE 00:52:39 20° NNE 00:54:11 10° N visible
